Location: Bad Salzschlirf
(50.3750°N, 9.3000°E)
Time: 03:30:16
(UTC+02:00)

ISS - Pass Details

Date: 06 July 2025
Orbit: 413 x 417 km, 51.6° (Epoch: 12 July)

Event Time Altitude Azimuth Distance (km) Brightness Sun altitude
Rises 04:26:33 0° 286° (WNW) 2,360 -0.2 -7.0°
Reaches altitude 10° 04:28:39 10° 283° (WNW) 1,496 -1.2 -6.7°
Maximum altitude 04:31:58 60° 203° (SSW) 481 -3.7 -6.4°
Drops below altitude 10° 04:35:16 10° 123° (ESE) 1,492 -0.8 -6.0°
Sets 04:37:23 0° 119° (ESE) 2,353 0.2 -5.8°
